Livermore, CA

10:06 AM PDT on June 29, 2017 (GMT -0700)
Livermore Municipal

Weather History for KLVK - January, 2013

Change the Weather History Date:

Sunday, January 27, 2013

  Actual Average Record
Temperature  
Mean Temperature 46 °F 47 °F  
Max Temperature 56 °F 57 °F 72 °F (1931)
Min Temperature 36 °F 38 °F 23 °F (1947)
Degree Days  
Heating Degree Days 19 18  
Month to date heating degree days 555 501  
Since 1 July heating degree days 1426 1532  
Cooling Degree Days 0 0  
Month to date cooling degree days 0 0  
Year to date cooling degree days 0 0  
Moisture  
Dew Point 36 °F    
Average Humidity 62    
Maximum Humidity 92    
Minimum Humidity 32    
Precipitation  
Precipitation 0.00 in 0.07 in 1.66 in (1996)
Month to date precipitation 0.71 2.69  
Year to date precipitation 0.71 2.69  
Since 1 July precipitation 9.00  
Sea Level Pressure  
Sea Level Pressure 30.12 in    
Wind  
Wind Speed 4 mph (WSW)    
Max Wind Speed 14 mph    
Max Gust Speed 17 mph    
Visibility 10 miles    
Events      
T = Trace of Precipitation, MM = Missing Value Source: NWS Daily Summary

Daily Weather History Graph

Daily Weather History Graph

Search for Another Location

Airport or City:

Trip Planner

Search our weather history database for the weather conditions in past years. The results will help you decide how hot, cold, wet, or windy it might be!

Date:

Astronomy

Jan. 27, 2013 Rise Set
Actual Time 7:14 AM PST 5:25 PM PST
Civil Twilight 6:46 AM PST 5:53 PM PST
Nautical Twilight 6:15 AM PST 6:25 PM PST
Astronomical Twilight 5:44 AM PST 6:56 PM PST
Moon 6:23 PM PST (1/27) 7:12 AM PST (1/27)
Length of Visible Light 11h 06m
Length of Day
10h 11m
Full, 100% of the Moon is Illuminated
Jan 27
Full
Feb 3
Last Quarter
Feb 9
New
Feb 17
First Quarter
Feb 25
Full

Hourly Weather History & Observations

Time (PST) Temp. Windchill Dew Point Humidity Pressure Visibility Wind Dir Wind Speed Gust Speed Precip Events Conditions
12:06 AM 44.6 °F 40.7 °F 39.2 °F 81% 30.07 in 10.0 mi SW 6.9 mph - N/A   Partly Cloudy
12:53 AM 45.0 °F 40.6 °F 39.9 °F 82% 30.07 in 10.0 mi SW 8.1 mph - N/A   Clear
1:53 AM 44.1 °F 41.5 °F 39.0 °F 82% 30.07 in 10.0 mi West 4.6 mph - N/A   Clear
2:53 AM 43.0 °F - 37.0 °F 80% 30.08 in 10.0 mi Calm Calm - N/A   Clear
4:53 AM 39.9 °F 37.8 °F 37.0 °F 89% 30.08 in 10.0 mi NNE 3.5 mph - N/A   Clear
5:53 AM 39.0 °F - 36.0 °F 89% 30.09 in 10.0 mi Calm Calm - N/A   Clear
6:53 AM 37.9 °F - 35.1 °F 89% 30.11 in 10.0 mi Calm Calm - N/A   Clear
7:53 AM 37.0 °F 34.5 °F 35.1 °F 93% 30.12 in 10.0 mi ESE 3.5 mph - N/A   Clear
8:53 AM 44.1 °F 42.5 °F 37.9 °F 79% 30.15 in 10.0 mi West 3.5 mph - N/A   Clear
9:53 AM 46.9 °F - 36.0 °F 66% 30.16 in 10.0 mi WNW 3.5 mph - N/A   Clear
10:53 AM 48.9 °F - 36.0 °F 61% 30.17 in 10.0 mi WNW 4.6 mph - N/A   Clear
11:53 AM 51.1 °F - 36.0 °F 56% 30.16 in 10.0 mi SSW 3.5 mph - N/A   Clear
12:53 PM 53.1 °F - 36.0 °F 52% 30.14 in 10.0 mi SSW 6.9 mph - N/A   Clear
1:53 PM 55.0 °F - 34.0 °F 45% 30.12 in 10.0 mi West 10.4 mph - N/A   Partly Cloudy
2:53 PM 55.9 °F - 28.0 °F 34% 30.12 in 10.0 mi WNW 9.2 mph - N/A   Partly Cloudy
3:53 PM 55.0 °F - 27.0 °F 34% 30.12 in 10.0 mi WNW 9.2 mph - N/A   Partly Cloudy
4:53 PM 54.0 °F - 28.0 °F 37% 30.11 in 10.0 mi NW 6.9 mph - N/A   Clear
5:53 PM 46.9 °F - 37.0 °F 68% 30.12 in 10.0 mi West 9.2 mph - N/A   Clear
6:53 PM 46.0 °F - 37.9 °F 73% 30.13 in 10.0 mi Calm Calm - N/A   Clear
7:53 PM 44.1 °F 42.5 °F 37.9 °F 79% 30.14 in 10.0 mi South 3.5 mph - N/A   Clear
8:53 PM 44.1 °F 40.8 °F 37.9 °F 79% 30.14 in 10.0 mi WSW 5.8 mph - N/A   Clear
9:53 PM 43.0 °F - 37.0 °F 80% 30.14 in 10.0 mi Calm Calm - N/A   Clear
10:53 PM 43.0 °F - 37.9 °F 82% 30.15 in 10.0 mi Calm Calm - N/A   Clear
11:53 PM 41.0 °F - 36.0 °F 82% 30.16 in 10.0 mi Calm Calm - N/A   Clear